Voltar ao catálogo

STARLINK-31872

AtivoComunicaçõesVLEO
NORAD 59922·PAYLOAD·🇺🇸 United States

Lançado Jun 1, 2024 de Cape Canaveral Space Force Station

Loading…

Próximas Passagens (próximas 24 horas)

TLE

AtualizadoSource: CelesTrak SupGP

Época: Sep 15, 2026, 02:18 UTC

1 59922C 24106A   26258.09631944  .00039025  00000+0  14126-2 0  2581
2 59922  43.0028 343.1944 0001519 258.2096 192.2961 15.27579764    16

Acompanhe STARLINK-31872 em tempo real com AllMySat

Download on the App Store